[[{"header":{"parameterUnit":"m.s-1","parameterCategory":1,"la1":30.2991,"la2":30.254,"lo1":-89.0895,"lo2":-89.0444,"dy":0.0017,"dx":0.0017,"nx":28,"ny":28,"refTime":"2024-05-23T09:00:00:Z","depth":0,"parameterNumber":2,"parameterNumberName":"U-component_of_WINDS"},"data":[0,0,0,0,0,0,0,0,0,0,0,0,0,0,0,0,0,0,0,0,0,0,0,0,0,0,0,0,0,0,0,0,0,0,0,0,0,0,0,0,0,0,0,0,0,0,0,0,0,0,0,0,0,0,0,0,0,0,-0.2116,-0.2116,0,-0.2166,-0.2167,-0.2167,-0.2211,-0.2212,-0.2212,-0.2213,-0.2262,-0.2263,-0.2264,0,0,0,0,0,0,0,0,0,0,0,0,0,-0.2058,-0.2058,-0.2116,-0.2117,-0.2117,-0.2166,-0.2167,-0.2167,-0.2211,-0.2212,-0.2212,-0.2213,-0.2262,-0.2263,-0.2264,0,0,0,0,0,0,0,0,0,0,0,0,0,-0.2093,-0.2059,-0.2116,-0.2145,-0.2148,-0.2166,-0.2167,-0.2168,-0.2211,-0.2212,-0.2213,-0.2213,-0.2261,-0.2262,-0.2264,-0.2256,0,0,-0.2267,-0.2268,0,0,0,0,0,0,0,0,-0.2091,-0.2095,-0.214,-0.2143,-0.2147,-0.2183,-0.2164,-0.2197,-0.2211,-0.2187,-0.2213,-0.2214,-0.2235,-0.2238,-0.2246,-0.2258,-0.226,-0.2268,-0.2268,-0.2269,-0.2269,0,0,0,0,0,0,0,-0.2088,-0.2093,-0.2136,-0.2141,-0.2145,-0.2155,-0.2161,-0.2171,-0.2206,-0.2189,-0.2193,-0.2198,-0.2237,-0.2245,-0.2248,-0.2261,-0.2268,-0.2269,-0.2269,-0.227,-0.2272,-0.2271,0,0,0,0,0,0,-0.2081,-0.2091,-0.2134,-0.2137,-0.212,-0.2156,-0.2162,-0.2171,-0.2206,-0.2212,-0.2197,-0.22,-0.2242,-0.2246,-0.2249,-0.2244,-0.2269,-0.227,-0.2271,-0.2272,-0.2271,-0.2271,0,0,0,0,0,0,-0.208,-0.2085,-0.2132,-0.2115,-0.2122,-0.2156,-0.2165,-0.2171,-0.2179,-0.2212,-0.2219,-0.2199,-0.2243,-0.2248,-0.2255,-0.2246,-0.2271,-0.2272,-0.2273,-0.2272,-0.2271,-0.2232,0,0,0,0,0,0,-0.2078,-0.2084,-0.2081,-0.2114,-0.2122,-0.2136,-0.2164,-0.2172,-0.2182,-0.2185,-0.2215,-0.2221,-0.2244,-0.2253,-0.2256,-0.2249,-0.2273,-0.2274,-0.2273,-0.2271,-0.2235,-0.223,-0.2226,0,0,0,0,0,-0.2076,-0.2068,-0.2081,-0.2086,-0.212,-0.2136,-0.214,-0.2168,-0.2181,-0.2178,-0.22,-0.222,-0.2247,-0.2253,-0.2257,-0.225,-0.2275,-0.2273,-0.2271,-0.2236,-0.2231,-0.2227,0,0,0,0,0,0,-0.2031,-0.2072,-0.2088,-0.209,-0.2109,-0.2143,-0.2141,-0.2161,-0.2176,-0.2179,-0.2211,-0.2218,-0.2221,-0.2236,-0.2242,-0.2245,-0.2264,-0.2263,-0.2235,-0.2231,-0.2227,-0.2223,-0.2274,0,0,0,0,0,-0.2022,-0.2032,-0.2067,-0.2066,-0.2075,-0.2106,-0.2114,-0.2134,-0.2155,-0.2163,-0.2185,-0.2204,-0.2217,-0.2224,-0.2238,-0.2237,-0.2245,-0.2234,-0.223,-0.2227,-0.2226,-0.2228,-0.2224,-0.2265,-0.2266,-0.2266,0,0,-0.2002,-0.2026,-0.203,-0.2057,-0.2075,-0.2084,-0.2113,-0.2121,-0.2129,-0.2164,-0.2172,-0.2189,-0.2213,-0.2216,-0.2219,-0.2229,-0.2216,-0.2225,-0.2222,-0.2223,-0.2226,-0.2222,-0.2219,-0.2264,-0.2265,-0.2265,0,0,-0.1972,-0.199,-0.1992,-0.2009,-0.2036,-0.2057,-0.2057,-0.2089,-0.2102,-0.2112,-0.2139,-0.2148,-0.2169,-0.2185,-0.2196,-0.2174,-0.2194,-0.2178,-0.2156,-0.2158,-0.2155,-0.2153,-0.2146,-0.2143,-0.2177,-0.2177,-0.2176,0,-0.1943,-0.196,-0.199,-0.1998,-0.201,-0.2043,-0.2046,-0.2061,-0.209,-0.2097,-0.2108,-0.2137,-0.2155,-0.2164,-0.2159,-0.2166,-0.2168,-0.2175,-0.2153,-0.2151,-0.2149,-0.2143,-0.214,-0.2174,-0.2175,-0.2175,-0.2175,0,-0.1925,-0.1936,-0.1934,-0.1963,-0.1974,-0.1979,-0.2011,-0.2019,-0.2038,-0.2058,-0.2068,-0.2091,-0.2111,-0.2114,-0.2132,-0.2126,-0.2132,-0.2147,-0.2166,-0.2142,-0.2137,-0.2135,-0.2172,-0.2172,-0.2173,-0.2173,0,0,-0.1866,-0.1914,-0.1913,-0.1927,-0.196,-0.1969,-0.1975,-0.1996,-0.2003,-0.2022,-0.2029,-0.2047,-0.2063,-0.2076,-0.2096,-0.2097,-0.208,-0.2113,-0.2115,-0.2107,-0.2077,-0.2065,-0.2062,-0.2094,-0.2093,-0.2093,-0.2075,0,-0.1842,-0.1857,-0.1886,-0.1892,-0.1903,-0.1936,-0.1942,-0.1963,-0.1982,-0.1995,-0.2016,-0.2029,-0.2048,-0.2056,-0.2059,-0.2082,-0.2075,-0.2083,-0.2101,-0.2101,-0.2095,-0.2059,-0.2047,-0.2029,-0.2073,-0.2073,-0.2073,0,-0.1815,-0.1834,-0.1842,-0.1876,-0.1882,-0.1887,-0.1909,-0.192,-0.1945,-0.1959,-0.1974,-0.1997,-0.2006,-0.2024,-0.2038,-0.2043,-0.2052,-0.2064,-0.2064,-0.2067,-0.2086,-0.2062,-0.2023,-0.2021,-0.207,-0.207,-0.207,0,-0.1774,-0.1801,-0.181,-0.1821,-0.186,-0.1863,-0.188,-0.1905,-0.1916,-0.1935,-0.1943,-0.1963,-0.1973,-0.1988,-0.2016,-0.2026,-0.2027,-0.2046,-0.204,-0.2039,-0.2039,-0.2039,-0.2002,-0.2043,-0.2043,-0.2043,-0.2043,0,-0.1744,-0.1747,-0.1792,-0.1797,-0.1803,-0.1836,-0.184,-0.1859,-0.1882,-0.1892,-0.1921,-0.193,-0.1965,-0.1978,-0.2,-0.2009,-0.2013,-0.2025,-0.2031,-0.2023,-0.2022,-0.203,-0.2032,-0.2043,-0.2043,-0.2043,-0.2043,0,-0.1698,-0.1728,-0.174,-0.1777,-0.1786,-0.1789,-0.1821,-0.1827,-0.1849,-0.1861,-0.1866,-0.19,-0.1917,-0.1946,-0.1971,-0.1985,-0.1991,-0.2,-0.1983,-0.1986,-0.1979,-0.1979,-0.1946,-0.1944,-0.1986,-0.1985,-0.1985,0,-0.1678,-0.1682,-0.172,-0.1729,-0.1745,-0.1759,-0.1771,-0.1804,-0.1815,-0.1845,-0.1848,-0.1867,-0.1885,-0.191,-0.1937,-0.1956,-0.1967,-0.1954,-0.197,-0.1963,-0.1968,-0.1968,-0.1969,-0.195,-0.195,-0.1949,-0.1949,0,-0.1638,-0.1654,-0.167,-0.1693,-0.1707,-0.1726,-0.1746,-0.1752,-0.179,-0.1801,-0.1819,-0.1833,-0.1859,-0.1878,-0.1902,-0.1919,-0.194,-0.1944,-0.1944,-0.1936,-0.1926,-0.1933,-0.1974,-0.1944,-0.1945,-0.1945,-0.1945,-0.1946,-0.1606,-0.1612,-0.164,-0.1658,-0.1677,-0.1696,-0.1705,-0.1729,-0.1745,-0.177,-0.1788,-0.1805,-0.1831,-0.1865,-0.1881,-0.1895,-0.1905,-0.1904,-0.1904,-0.1903,-0.1901,-0.1923,-0.1899,-0.1899,-0.19,-0.19,-0.19,0,-0.1569,-0.159,-0.1606,-0.1635,-0.1649,-0.1669,-0.1693,-0.1704,-0.1719,-0.1742,-0.1759,-0.1781,-0.18,-0.1829,-0.1851,-0.1857,-0.1867,-0.1861,-0.1861,-0.1865,-0.189,-0.1889,-0.1852,-0.1852,-0.1852,-0.1852,-0.1852,-0.1852,-0.1552,-0.1564,-0.1582,-0.1604,-0.1624,-0.1642,-0.1654,-0.1672,-0.1691,-0.1714,-0.1731,-0.175,-0.1776,-0.18,-0.1818,-0.1826,-0.1833,-0.1825,-0.1836,-0.1859,-0.1863,-0.1867,-0.1866,-0.1826,-0.1826,-0.181,-0.181,-0.1809]},{"header":{"parameterUnit":"m.s-1","parameterCategory":1,"la1":30.2991,"la2":30.254,"lo1":-89.0895,"lo2":-89.0444,"dy":0.0017,"dx":0.0017,"nx":28,"ny":28,"refTime":"2024-05-23T09:00:00:Z","depth":0,"parameterNumber":3,"parameterNumberName":"V-component_of_WINDS"},"data":[0,0,0,0,0,0,0,0,0,0,0,0,0,0,0,0,0,0,0,0,0,0,0,0,0,0,0,0,0,0,0,0,0,0,0,0,0,0,0,0,0,0,0,0,0,0,0,0,0,0,0,0,0,0,0,0,0,0,5.1612,5.1612,0,5.1593,5.1592,5.1592,5.1522,5.152,5.1518,5.1517,5.1498,5.1499,5.15,0,0,0,0,0,0,0,0,0,0,0,0,0,5.159,5.1591,5.1612,5.1612,5.1612,5.1593,5.1592,5.1592,5.1522,5.152,5.1518,5.1516,5.1497,5.1499,5.15,0,0,0,0,0,0,0,0,0,0,0,0,0,5.1588,5.1591,5.1612,5.1574,5.1571,5.1593,5.1592,5.1592,5.1522,5.152,5.1518,5.1515,5.1497,5.1498,5.15,5.1557,0,0,5.1504,5.1505,0,0,0,0,0,0,0,0,5.1588,5.1589,5.158,5.1577,5.1573,5.1557,5.1577,5.158,5.1523,5.1541,5.1517,5.1514,5.152,5.1519,5.1521,5.1556,5.1555,5.1505,5.1505,5.1506,5.1506,0,0,0,0,0,0,0,5.1589,5.159,5.1604,5.158,5.1576,5.1559,5.1556,5.1578,5.1544,5.1539,5.1534,5.1532,5.1517,5.1519,5.152,5.1555,5.1504,5.1506,5.1507,5.1507,5.1636,5.1638,0,0,0,0,0,0,5.1594,5.159,5.1605,5.1604,5.1575,5.1561,5.1558,5.1565,5.1543,5.1538,5.1535,5.1529,5.1518,5.1518,5.1519,5.1583,5.1506,5.1507,5.1508,5.1634,5.1637,5.1639,0,0,0,0,0,0,5.1594,5.1596,5.1606,5.1596,5.1595,5.1564,5.1572,5.1566,5.1568,5.154,5.1534,5.1543,5.1516,5.1517,5.1548,5.1582,5.1508,5.1509,5.1631,5.1634,5.1638,5.1714,0,0,0,0,0,0,5.1593,5.1596,5.1617,5.1597,5.1596,5.1635,5.1574,5.1567,5.157,5.1563,5.1546,5.1541,5.1514,5.1546,5.1549,5.1583,5.1511,5.1627,5.1632,5.1637,5.1708,5.172,5.173,0,0,0,0,0,5.1593,5.164,5.1619,5.1621,5.1622,5.1637,5.1637,5.1605,5.1573,5.1594,5.1577,5.1542,5.1578,5.155,5.1553,5.1587,5.1625,5.1631,5.1636,5.1704,5.1718,5.173,0,0,0,0,0,0,5.1666,5.1637,5.1613,5.1654,5.1649,5.1625,5.1651,5.1621,5.1625,5.1618,5.1578,5.1575,5.1612,5.1603,5.1572,5.1641,5.1596,5.1602,5.1646,5.1659,5.167,5.1671,5.1512,0,0,0,0,0,5.1687,5.1702,5.1675,5.1715,5.1713,5.1683,5.1688,5.1664,5.1657,5.1654,5.1639,5.1633,5.1643,5.1651,5.1658,5.1707,5.1702,5.1732,5.1743,5.1752,5.1758,5.1783,5.1796,5.1658,5.1658,5.1658,0,0,5.173,5.1716,5.1728,5.1729,5.1722,5.1738,5.1681,5.1701,5.1712,5.1657,5.1685,5.1674,5.1665,5.1706,5.1723,5.1699,5.1795,5.1759,5.1767,5.1768,5.179,5.1803,5.1815,5.1662,5.1661,5.1661,0,0,5.1817,5.1808,5.184,5.1834,5.1824,5.1803,5.1811,5.1792,5.1782,5.181,5.1769,5.1783,5.1801,5.1796,5.1796,5.1882,5.185,5.1886,5.1942,5.1967,5.1978,5.1987,5.2017,5.2029,5.1892,5.1893,5.1893,0,5.1872,5.1895,5.186,5.1882,5.1884,5.1834,5.1866,5.1862,5.1855,5.1858,5.1831,5.1853,5.1844,5.1882,5.1903,5.1905,5.1913,5.1887,5.1979,5.1988,5.1996,5.2025,5.2036,5.1897,5.1896,5.1896,5.1896,0,5.1963,5.1979,5.2006,5.2,5.2005,5.2032,5.2001,5.201,5.1986,5.1969,5.1998,5.1985,5.1989,5.1997,5.1973,5.2032,5.2018,5.1986,5.1939,5.2015,5.204,5.2051,5.1903,5.1902,5.19,5.1899,0,0,5.2095,5.2069,5.208,5.2076,5.2062,5.2074,5.2099,5.2102,5.2111,5.2108,5.2128,5.2145,5.2116,5.2116,5.2092,5.2114,5.2182,5.2079,5.2078,5.2098,5.2245,5.2269,5.2282,5.2161,5.2163,5.2165,5.2246,0,5.2177,5.2217,5.2186,5.2232,5.2247,5.2201,5.2222,5.2216,5.2201,5.2211,5.2194,5.2207,5.2167,5.2167,5.2187,5.217,5.2211,5.2163,5.2179,5.218,5.2182,5.2295,5.232,5.2397,5.2256,5.2258,5.2259,0,5.2277,5.2279,5.2326,5.2308,5.2313,5.2333,5.2334,5.2345,5.2337,5.2324,5.2325,5.2295,5.2319,5.2274,5.2306,5.2274,5.2279,5.2272,5.2274,5.2273,5.2223,5.2298,5.2421,5.2433,5.2275,5.2273,5.2272,0,5.2368,5.2382,5.2412,5.241,5.2391,5.2406,5.2398,5.2388,5.2392,5.2394,5.2396,5.2401,5.2403,5.2407,5.2379,5.2349,5.2415,5.2367,5.2405,5.2406,5.242,5.2419,5.2546,5.2425,5.2424,5.2424,5.2424,0,5.2462,5.2493,5.2452,5.247,5.2503,5.2468,5.2502,5.249,5.2481,5.2497,5.2458,5.2473,5.2436,5.2448,5.2426,5.2456,5.2457,5.2448,5.2442,5.2451,5.2452,5.2453,5.2446,5.2427,5.2427,5.2426,5.2425,0,5.2568,5.2542,5.2571,5.2551,5.2546,5.2571,5.2553,5.257,5.2552,5.2572,5.2575,5.2548,5.2559,5.2532,5.254,5.2526,5.2568,5.2554,5.2571,5.2566,5.2605,5.2601,5.2735,5.2751,5.2621,5.2622,5.2623,0,5.2629,5.2652,5.2633,5.2641,5.2635,5.2648,5.2652,5.2619,5.2625,5.2618,5.2635,5.2644,5.2648,5.267,5.2651,5.2657,5.2642,5.2689,5.2643,5.2651,5.2642,5.2641,5.2643,5.2698,5.2699,5.2701,5.2702,0,5.2741,5.2727,5.2734,5.2737,5.2743,5.2744,5.2742,5.2751,5.2715,5.2724,5.2736,5.274,5.2748,5.2757,5.2759,5.2751,5.2721,5.2717,5.2725,5.2735,5.2743,5.2739,5.2596,5.2713,5.2712,5.2711,5.2711,5.271,5.2826,5.2844,5.2833,5.2843,5.2838,5.2837,5.2852,5.2836,5.2845,5.2848,5.2828,5.2844,5.2836,5.2836,5.2832,5.2844,5.2823,5.2836,5.2839,5.2842,5.2849,5.2742,5.2844,5.2844,5.2843,5.2843,5.2843,0,5.2935,5.2926,5.2935,5.2934,5.2941,5.2912,5.2909,5.2917,5.2931,5.2926,5.2932,5.2945,5.2954,5.2936,5.2942,5.2955,5.2942,5.2958,5.2956,5.2955,5.2867,5.2859,5.2969,5.2969,5.2969,5.2969,5.2969,5.2969,5.2992,5.3021,5.3006,5.3031,5.3022,5.3037,5.3038,5.3037,5.3033,5.3049,5.3056,5.3044,5.3034,5.3039,5.3046,5.3041,5.3045,5.3066,5.3056,5.2974,5.2961,5.295,5.2941,5.3067,5.3067,5.3142,5.3143,5.3143]}]]